Regional Weather Roundup
Issued by NWS Northern Indiana

Home | Current Version | Previous Version | Graphics & Text | Print | Product List | Glossary On
Versions: 1 2 3 4 5 6 7 8 9 10 11 12 13 14 15 16 17 18 19 20 21 22 23 24 25 26 27 28 29 30 31 32 33 34 35 36 37 38 39 40 41 42 43 44 45 46 47 48 49 50
000
ASUS43 KIWX 022110
RWRIWX

KIWX WEATHER ROUNDUP
NATIONAL WEATHER SERVICE NORTHERN INDIANA
500 PM EDT SUN AUG 02 2015

NOTE: "FAIR" INDICATES FEW OR NO CLOUDS BELOW 12,000 FEET WITH NO
SIGNIFICANT WEATHER AND/OR OBSTRUCTIONS TO VISIBILITY.

* THESE STATIONS ARE NOT UNDER NWS QUALITY CONTROL. THEY ALSO MAY NOT
  REPORT WEATHER SUCH AS PRECIPITATION OR FOG.

INZ001>027-022200-
NORTHERN INDIANA

CITY           SKY/WX    TMP DP  RH WIND       PRES   REMARKS
GARY*          PTSUNNY   88  68  51 SW17G33   29.77S
VALPARAISO     MOSUNNY   88  63  43 SW16G23   29.78F
MICHIGAN CITY* SUNNY     84  61  45 SW10G21   29.76F
LAPORTE*       SUNNY     88  63  43 SW13G23   29.78F
KNOX*          SUNNY     88  61  40 SW20G25   29.78F
SOUTH BEND     SUNNY     91  60  35 SW24G35   29.76F
ELKHART*       MOSUNNY   93  55  27 SW23G35   29.77F
GOSHEN         SUNNY     90  64  42 SW24G32   29.78F
MONTICELLO*    SUNNY     89  67  48 SW18G26   29.82F
LOGANSPORT*    MOSUNNY   88  63  42 SW18      29.84F
ROCHESTER*     SUNNY     91  63  38 SW15G29   29.82F
WARSAW*        MOSUNNY   88  68  51 SW17G25   29.81S
ANGOLA*        SUNNY     90  84  84 SW18      29.78F HX 115
FORT WAYNE     MOSUNNY   89  63  41 SW23G30   29.83F
HUNTINGTON*    SUNNY     87  65  47 SW12G23   29.83F
PERU/GRISSOM   SUNNY     90  69  50 SW21      29.83F
MARION*        SUNNY     87  62  43 SW16G23   29.86F

$$
INZ028>050-022200-
CENTRAL INDIANA

CITY           SKY/WX    TMP DP  RH WIND       PRES   REMARKS
LAFAYETTE      SUNNY     88  69  53 SW12      29.84F
KOKOMO*        MOSUNNY   88  66  48 W18G29    29.86S
MUNCIE*        SUNNY     86  66  51 SW15      29.87F
INDIANAPOLIS   MOSUNNY   86  66  51 S15       29.88F

$$
MIZ043>046-050>051-056>058-064>065-071>073-077>080-022200-
SOUTHWEST LOWER MICHIGAN

CITY           SKY/WX    TMP DP  RH WIND       PRES   REMARKS
BATTLE CREEK   SUNNY     92  63  38 SW30G40   29.72F
BENTON HARBOR  SUNNY     88  65  46 SW24G32   29.72F
COLDWATER*     SUNNY     87  63  45 SW18G29   29.76F
HILLSDALE*     SUNNY     88  65  45 SW12G23   29.79S
HOLLAND        SUNNY     91  65  41 SW29G39   29.66F
GRAND RAPIDS   MOSUNNY   91  64  40 SW23G41   29.64F
KALAMAZOO      SUNNY     92  64  39 SW23G36   29.71F
STURGIS*       MOSUNNY   88  66  48 SW18G26   29.76F
THREE RIVERS*  FAIR      90  59  34 SW15G29   29.75F

$$
OHZ001>008-015>018-024>025-022200-
NORTHWEST OHIO

CITY           SKY/WX    TMP DP  RH WIND       PRES   REMARKS
WAUSEON*       FAIR      90  61  37 W18G29    29.78F
DEFIANCE       SUNNY     91  61  36 SW16G28   29.79F
FINDLAY        SUNNY     88  63  43 SW24G31   29.82F
TOLEDO EXPRESS SUNNY     89  61  38 SW16G30   29.78F
TOLEDO METCALF SUNNY     91  59  33 SW23G32   29.79F
LIMA           SUNNY     86  65  49 SW16G29   29.86F

$$
AND FOR LAKE MICHIGAN COASTAL AND OPEN LAKE BUOY OBSERVATIONS

STATION/POSITION TEMP    WIND        PRES    VSBY  WAVE
                 AIR SEA DIR/SP/G                  HT/PER
                 (F)     (DEG/KT/KT) (MB)    (MI)  (FT/S)
CALUMET HARBOR    88     220/  9/ 16   N/A
MICHIGAN CITY     88     190/ 26/ 31   N/A
BURNS HARBOR      88     220/ 23     1007.8F
SAINT JOSEPH      80     190/ 17/ 21 1007.1F
4 MI NW BRIDGMAN  80 74  260/ 17/ 19   N/A           3/ 4
MICHIGAN CITY     82 74  240/ 14/ 19   N/A           4/ 4

$$
&&


USA.gov is the U.S. government's official web portal to all federal, state and local government web resources and services.